Flag for U.S.A. Weather past 2 weeks in Midland, Texas, U.S.A.

Now
97 °F

Scattered clouds.


Feels Like: 94 °F
Forecast: 75 / 95 °F
Wind: 12 mph from Southeast

Location: Midland - Midland Airpark

Current Time: Aug 22, 2014 at 5:15:33 PM

Latest Report: Aug 22, 2014 at 4:55 PM


Visibility: 10 mi

Pressure: 29.99 "Hg

Humidity: 21%

Dew point: 52 °F

Location of MidlandLocation

Historic Weather in Midland — Graph

°F

Midland temperature yesterday

Maximum temperature yesterday: 98 °F (at 4:15 PM)
Minimum temperature yesterday: 77 °F (at 5:15 AM)
Average temperature yesterday: 88 °F

Past Weeks' High & Low Weather Summary

 TemperatureHumidityPressure
High102 °F (Aug 7, 4:55 PM)86% (Aug 13, 5:55 AM)30.25 "Hg (Aug 13, 5:55 AM)
Low68 °F (Aug 19, 7:35 AM)15% (Aug 7, 5:35 PM)29.84 "Hg (Aug 19, 6:55 PM)
Average85 °F44%30.04 "Hg
* Reported Aug 7 3:15 PM — Aug 22 3:55 PM, Midland, Weather by CustomWeather, © 2014

Note: Actual official high and low records may vary slightly from our data, if they occured in-between our weather recording intervals... More about our weather records

Advertising

Midland weather history for previous 24 hours

 ConditionsComfort  
Time TempWeatherWind HumidityBarometerVisibility
3:55 PM
Aug 22
95 °FScattered clouds.10 mph26%30.00 "Hg10 mi
3:35 PM95 °FScattered clouds.8 mph26%30.01 "Hg10 mi
3:15 PM95 °FScattered clouds.10 mph27%30.02 "Hg10 mi
2:55 PM94 °FSunny.3 mph28%30.02 "Hg10 mi
2:35 PM93 °FSunny.7 mph28%30.03 "Hg10 mi
2:15 PM93 °FSunny.9 mph29%30.04 "Hg10 mi
1:55 PM93 °FSunny.8 mph30%30.05 "Hg10 mi
1:35 PM92 °FSunny.7 mph30%30.05 "Hg10 mi
1:15 PM91 °FSunny.9 mph31%30.06 "Hg10 mi
12:55 PM90 °FSunny.10 mph32%30.07 "Hg10 mi
12:15 PM89 °FSunny.7 mph35%30.08 "Hg10 mi
11:55 AM88 °FSunny.10 mph37%30.09 "Hg10 mi
11:35 AM87 °FSunny.12 mph38%30.09 "Hg10 mi
11:15 AM86 °FSunny.13 mph40%30.09 "Hg10 mi
10:55 AM85 °FSunny.13 mph42%30.09 "Hg10 mi
10:35 AM83 °FSunny.10 mph44%30.10 "Hg10 mi
10:15 AM82 °FSunny.13 mph47%30.10 "Hg10 mi
9:55 AM81 °FSunny.13 mph48%30.10 "Hg10 mi
9:35 AM81 °FSunny.17 mph49%30.10 "Hg10 mi
9:15 AM80 °FSunny.15 mph50%30.09 "Hg10 mi
8:55 AM79 °FSunny.12 mph51%30.09 "Hg10 mi
8:15 AM78 °FClear.8 mph55%30.09 "Hg10 mi
7:55 AM78 °FClear.5 mph57%30.08 "Hg10 mi
7:35 AM77 °FClear.6 mph57%30.08 "Hg10 mi
7:15 AM78 °FClear.5 mph55%30.07 "Hg10 mi
6:55 AM78 °FClear.8 mph54%30.07 "Hg10 mi
6:35 AM79 °FClear.9 mph53%30.06 "Hg10 mi
6:15 AM79 °FClear.10 mph53%30.05 "Hg10 mi
5:55 AM80 °FClear.10 mph52%30.05 "Hg10 mi
5:35 AM80 °FClear.8 mph51%30.04 "Hg10 mi
5:15 AM80 °FClear.10 mph50%30.03 "Hg10 mi
4:55 AM81 °FClear.10 mph49%30.03 "Hg10 mi
4:35 AM81 °FClear.13 mph50%30.03 "Hg10 mi
4:15 AM80 °FClear.10 mph54%30.03 "Hg10 mi
3:55 AM80 °FClear.9 mph57%30.02 "Hg10 mi
3:35 AM80 °FClear.10 mph59%30.03 "Hg10 mi
3:15 AM80 °FClear.7 mph58%30.03 "Hg10 mi
2:55 AM81 °FClear.9 mph58%30.03 "Hg10 mi
2:35 AM81 °FClear.9 mph58%30.03 "Hg10 mi
2:15 AM81 °FClear.8 mph58%30.03 "Hg10 mi
1:55 AM82 °FClear.8 mph57%30.03 "Hg10 mi
1:35 AM81 °FClear.8 mph57%30.03 "Hg10 mi
1:15 AM82 °FClear.10 mph57%30.03 "Hg10 mi
12:55 AM82 °FClear.9 mph56%30.03 "Hg10 mi
12:35 AM82 °FClear.9 mph55%30.04 "Hg10 mi
12:15 AM82 °FClear.13 mph52%30.04 "Hg10 mi
11:55 PM
Aug 21
82 °FClear.7 mph50%30.04 "Hg10 mi
11:35 PM83 °FClear.6 mph47%30.04 "Hg10 mi
11:15 PM81 °FClear.3 mph52%30.04 "Hg10 mi
10:55 PM80 °FClear.5 mph57%30.05 "Hg10 mi
10:35 PM83 °FClear.6 mph45%30.05 "Hg10 mi
10:15 PM81 °FClear.3 mph51%30.05 "Hg10 mi
9:55 PM80 °FClear.No wind54%30.03 "Hg10 mi
9:35 PM77 °FClear.3 mph63%30.04 "Hg10 mi
9:15 PM79 °FThunderstorms. Scattered clouds.6 mph55%30.05 "Hg10 mi
8:30 PM91 °FThunderstorms. Mostly cloudy.20 mph39%30.00 "Hg10 mi
8:15 PM92 °FThundershowers. More clouds than sun.17 mph37%29.98 "Hg10 mi
7:55 PM94 °FThundershowers. More clouds than sun.21 mph32%29.96 "Hg10 mi
7:35 PM94 °FLight rain. Broken clouds.17 mph33%29.96 "Hg10 mi
7:15 PM95 °FSunny.15 mph31%29.95 "Hg10 mi
6:55 PM96 °FScattered clouds.14 mph28%29.95 "Hg10 mi
6:35 PM97 °FScattered clouds.17 mph28%29.95 "Hg10 mi
6:15 PM98 °FBroken clouds.17 mph27%29.95 "Hg10 mi
5:55 PM97 °FPartly sunny.14 mph28%29.95 "Hg10 mi
5:35 PM97 °FPartly sunny.17 mph29%29.96 "Hg10 mi
5:15 PM96 °FScattered clouds.13 mph30%29.96 "Hg10 mi
Weather by CustomWeather, © 2014

See weather overviewHow to use our weather pages